Time,TemperatureF,DewpointF,PressureIn,WindDirection,WindDirectionDegrees,WindSpeedMPH,WindSpeedGustMPH,Humidity,HourlyPrecipIn,Conditions,Clouds,dailyrainin,SoftwareType,DateUTC
2013-05-06 00:00:00,57.7,52.3,29.41,WNW,290,0.0,0.0,82,0.00,,OVC070,0.00,VWS V14.01,2013-05-06 07:00:00,
2013-05-06 00:10:00,57.7,52.3,29.41,WSW,246,0.0,0.0,82,0.00,,OVC070,0.00,VWS V14.01,2013-05-06 07:10:00,
2013-05-06 00:20:00,57.7,52.3,29.41,North,2,0.0,0.0,82,0.00,,OVC070,0.00,VWS V14.01,2013-05-06 07:20:00,
2013-05-06 00:30:00,57.7,52.3,29.44,NE,34,0.0,0.0,82,0.00,,OVC070,0.00,VWS V14.01,2013-05-06 07:30:00,
2013-05-06 00:40:00,57.7,52.3,29.44,NNE,18,0.0,0.0,82,0.00,,OVC070,0.00,VWS V14.01,2013-05-06 07:40:00,
2013-05-06 00:50:00,57.7,52.3,29.41,North,357,0.0,0.0,82,0.00,,OVC080,0.00,VWS V14.01,2013-05-06 07:50:00,
2013-05-06 01:00:00,57.7,52.0,29.44,NNE,28,0.0,0.0,81,0.00,,OVC080,0.00,VWS V14.01,2013-05-06 08:00:00,
2013-05-06 01:10:00,57.7,52.0,29.44,NW,309,0.0,0.0,81,0.00,,OVC080,0.00,VWS V14.01,2013-05-06 08:10:00,
2013-05-06 01:20:00,57.6,51.8,29.44,West,268,0.0,0.0,81,0.00,,OVC080,0.00,VWS V14.01,2013-05-06 08:20:00,
2013-05-06 01:30:00,57.6,51.8,29.44,West,276,0.0,0.0,81,0.00,,OVC080,0.00,VWS V14.01,2013-05-06 08:30:00,
2013-05-06 01:40:00,57.4,51.6,29.44,SW,214,0.0,0.0,81,0.00,,OVC080,0.00,VWS V14.01,2013-05-06 08:40:00,
2013-05-06 01:50:00,57.2,51.8,29.44,West,267,0.0,0.0,82,0.00,,OVC095,0.00,VWS V14.01,2013-05-06 08:50:00,
2013-05-06 02:00:00,57.2,51.8,29.44,NNW,343,0.0,0.0,82,0.00,,OVC095,0.00,VWS V14.01,2013-05-06 09:00:00,
2013-05-06 02:10:00,57.4,51.9,29.44,NE,56,0.0,0.0,82,0.00,,OVC095,0.00,VWS V14.01,2013-05-06 09:10:00,
2013-05-06 02:20:00,57.4,51.6,29.44,North,10,0.0,0.0,81,0.00,,OVC095,0.00,VWS V14.01,2013-05-06 09:20:00,
2013-05-06 02:30:00,57.4,51.6,29.44,North,10,0.0,0.0,81,0.00,,OVC095,0.00,VWS V14.01,2013-05-06 09:30:00,
2013-05-06 02:40:00,57.4,51.6,29.44,North,10,0.0,0.0,81,0.00,,OVC095,0.00,VWS V14.01,2013-05-06 09:40:00,
2013-05-06 02:50:00,57.2,51.8,29.41,North,10,0.0,0.0,82,0.00,,OVC080,0.00,VWS V14.01,2013-05-06 09:50:00,
2013-05-06 03:00:00,57.2,51.8,29.41,North,10,0.0,0.0,82,0.00,,OVC080,0.00,VWS V14.01,2013-05-06 10:00:00,
2013-05-06 03:10:00,57.2,51.8,29.41,NNE,22,0.0,0.0,82,0.00,,OVC080,0.00,VWS V14.01,2013-05-06 10:10:00,
2013-05-06 03:20:00,57.2,51.8,29.41,NNE,22,0.0,0.0,82,0.00,,OVC080,0.00,VWS V14.01,2013-05-06 10:20:00,
2013-05-06 03:30:00,57.2,51.8,29.41,NNE,22,0.0,0.0,82,0.00,,OVC080,0.00,VWS V14.01,2013-05-06 10:30:00,
2013-05-06 03:40:00,57.2,52.1,29.41,NNE,22,0.0,0.0,83,0.00,,OVC080,0.00,VWS V14.01,2013-05-06 10:40:00,
2013-05-06 03:50:00,57.0,51.9,29.41,NNE,22,0.0,0.0,83,0.00,,OVC075,0.00,VWS V14.01,2013-05-06 10:50:00,
2013-05-06 04:00:00,56.8,51.7,29.41,NNE,22,0.0,0.0,83,0.00,,OVC075,0.00,VWS V14.01,2013-05-06 11:00:00,
2013-05-06 04:10:00,56.7,51.9,29.41,NNE,22,0.0,0.0,84,0.00,,OVC075,0.00,VWS V14.01,2013-05-06 11:10:00,
2013-05-06 04:20:00,56.3,51.5,29.41,NNE,22,0.0,0.0,84,0.00,,OVC075,0.00,VWS V14.01,2013-05-06 11:20:00,
2013-05-06 04:30:00,56.3,51.9,29.41,NNE,22,0.0,0.0,85,0.00,,OVC075,0.00,VWS V14.01,2013-05-06 11:30:00,
2013-05-06 04:40:00,56.3,51.9,29.41,NNE,22,0.0,0.0,85,0.00,,OVC075,0.00,VWS V14.01,2013-05-06 11:40:00,
2013-05-06 04:50:00,56.1,52.0,29.41,NNE,22,0.0,0.0,86,0.00,,OVC100,0.00,VWS V14.01,2013-05-06 11:50:00,
2013-05-06 05:00:00,55.6,51.2,29.41,NNE,22,0.0,0.0,85,0.00,,OVC100,0.00,VWS V14.01,2013-05-06 12:00:00,
2013-05-06 05:10:00,55.4,51.0,29.41,NNE,22,0.0,0.0,85,0.00,,OVC100,0.00,VWS V14.01,2013-05-06 12:10:00,
2013-05-06 05:20:00,55.2,51.1,29.41,NNE,22,0.0,0.0,86,0.00,,OVC100,0.00,VWS V14.01,2013-05-06 12:20:00,
2013-05-06 05:30:00,55.0,51.2,29.41,NNE,22,0.0,0.0,87,0.00,,OVC100,0.00,VWS V14.01,2013-05-06 12:30:00,
2013-05-06 05:40:00,53.4,49.7,29.41,NNE,22,0.0,0.0,87,0.00,,OVC100,0.00,VWS V14.01,2013-05-06 12:40:00,
2013-05-06 05:50:00,53.6,50.1,29.41,NNE,22,0.0,0.0,88,0.00,,OVC100,0.00,VWS V14.01,2013-05-06 12:50:00,
2013-05-06 06:00:00,53.6,50.4,29.41,NNE,22,0.0,0.0,89,0.00,,OVC100,0.00,VWS V14.01,2013-05-06 13:00:00,
2013-05-06 06:10:00,54.0,51.1,29.41,NNE,22,0.0,0.0,90,0.00,,OVC100,0.00,VWS V14.01,2013-05-06 13:10:00,
2013-05-06 06:20:00,54.3,51.8,29.41,NNE,22,0.0,0.0,91,0.00,,OVC100,0.00,VWS V14.01,2013-05-06 13:20:00,
2013-05-06 06:30:00,54.3,51.8,29.41,NNE,22,0.0,0.0,91,0.00,,OVC100,0.00,VWS V14.01,2013-05-06 13:30:00,
2013-05-06 06:40:00,54.1,51.9,29.41,NNE,22,0.0,0.0,92,0.00,,FEW065,0.00,VWS V14.01,2013-05-06 13:40:00,
2013-05-06 06:50:00,54.3,52.0,29.41,NNE,22,0.0,0.0,92,0.00,,CLR,0.00,VWS V14.01,2013-05-06 13:50:00,
2013-05-06 07:00:00,54.1,51.9,29.44,NNE,22,0.0,0.0,92,0.00,,CLR,0.00,VWS V14.01,2013-05-06 14:00:00,
2013-05-06 07:10:00,54.1,51.9,29.44,NNE,22,0.0,0.0,92,0.00,,CLR,0.00,VWS V14.01,2013-05-06 14:10:00,
2013-05-06 07:20:00,54.1,51.9,29.44,NNE,22,0.0,0.0,92,0.00,,CLR,0.00,VWS V14.01,2013-05-06 14:20:00,
2013-05-06 07:30:00,54.1,51.9,29.44,NNE,22,0.0,0.0,92,0.00,,CLR,0.00,VWS V14.01,2013-05-06 14:30:00,
2013-05-06 07:40:00,54.3,52.3,29.44,NNE,22,0.0,0.0,93,0.00,,CLR,0.00,VWS V14.01,2013-05-06 14:40:00,
2013-05-06 07:50:00,55.0,53.3,29.44,NNE,22,0.0,0.0,94,0.00,,,0.00,VWS V14.01,2013-05-06 14:50:00,
2013-05-06 08:00:00,55.4,53.7,29.44,NNE,23,0.0,0.0,94,0.00,,,0.00,VWS V14.01,2013-05-06 15:00:00,
2013-05-06 08:10:00,55.9,54.2,29.44,NNE,22,0.0,0.0,94,0.00,,,0.00,VWS V14.01,2013-05-06 15:10:00,
2013-05-06 08:20:00,57.0,55.0,29.44,SSW,206,0.0,0.0,93,0.00,,,0.00,VWS V14.01,2013-05-06 15:20:00,
2013-05-06 08:30:00,57.9,55.0,29.44,SSW,207,0.0,0.0,90,0.00,,,0.00,VWS V14.01,2013-05-06 15:30:00,
2013-05-06 08:40:00,58.5,55.2,29.44,SW,216,0.0,0.0,89,0.00,,,0.00,VWS V14.01,2013-05-06 15:40:00,
2013-05-06 08:50:00,58.6,54.2,29.47,SW,215,0.0,0.0,85,0.00,,SCT090,0.00,VWS V14.01,2013-05-06 15:50:00,
2013-05-06 09:00:00,58.6,54.2,29.47,SW,215,0.0,0.0,85,0.00,,SCT090,0.00,VWS V14.01,2013-05-06 16:00:00,
2013-05-06 09:10:00,58.6,54.2,29.47,SW,214,0.0,0.0,85,0.00,,SCT090,0.00,VWS V14.01,2013-05-06 16:10:00,
2013-05-06 09:20:00,59.2,54.4,29.47,SSW,211,0.0,0.0,84,0.00,,SCT090,0.00,VWS V14.01,2013-05-06 16:20:00,
2013-05-06 09:30:00,59.2,54.0,29.47,SSW,211,0.0,0.0,83,0.00,,SCT090,0.00,VWS V14.01,2013-05-06 16:30:00,
2013-05-06 09:40:00,59.4,54.2,29.47,SSW,211,0.0,0.0,83,0.00,,SCT090,0.00,VWS V14.01,2013-05-06 16:40:00,
2013-05-06 09:50:00,59.9,54.4,29.47,SSW,211,0.0,0.0,82,0.00,,BKN180,0.00,VWS V14.01,2013-05-06 16:50:00,
2013-05-06 10:00:00,60.6,55.1,29.47,SSW,210,0.0,0.0,82,0.00,,BKN180,0.00,VWS V14.01,2013-05-06 17:00:00,
2013-05-06 10:10:00,61.5,53.9,29.47,SW,226,0.0,0.0,76,0.00,,BKN180,0.00,VWS V14.01,2013-05-06 17:10:00,
2013-05-06 10:20:00,61.9,54.6,29.47,West,265,0.0,0.0,77,0.00,,BKN180,0.00,VWS V14.01,2013-05-06 17:20:00,
2013-05-06 10:30:00,62.4,54.8,29.47,SSW,207,0.0,0.0,76,0.00,,BKN180,0.00,VWS V14.01,2013-05-06 17:30:00,
2013-05-06 10:40:00,62.8,54.0,29.47,WSW,246,0.0,0.0,73,0.00,,BKN180,0.00,VWS V14.01,2013-05-06 17:40:00,
2013-05-06 10:50:00,62.6,52.7,29.47,West,275,0.0,0.0,70,0.00,,BKN200,0.00,VWS V14.01,2013-05-06 17:50:00,
2013-05-06 11:00:00,62.8,52.9,29.47,WSW,250,0.0,0.0,70,0.00,,BKN200,0.00,VWS V14.01,2013-05-06 18:00:00,
2013-05-06 11:10:00,63.3,53.0,29.47,NNE,16,0.0,0.0,69,0.00,,BKN200,0.00,VWS V14.01,2013-05-06 18:10:00,
2013-05-06 11:20:00,63.5,53.5,29.47,SW,225,0.0,0.0,70,0.00,,BKN200,0.00,VWS V14.01,2013-05-06 18:20:00,
2013-05-06 11:30:00,63.9,53.9,29.47,WSW,245,2.7,2.7,70,0.00,,BKN200,0.00,VWS V14.01,2013-05-06 18:30:00,
2013-05-06 11:40:00,64.2,53.5,29.47,South,190,0.0,2.7,68,0.00,,BKN200,0.00,VWS V14.01,2013-05-06 18:40:00,
2013-05-06 11:50:00,64.6,52.6,29.47,SSW,196,3.1,4.0,65,0.00,,BKN200,0.00,VWS V14.01,2013-05-06 18:50:00,
2013-05-06 12:00:00,64.8,52.7,29.47,SW,222,2.2,3.1,65,0.00,,BKN200,0.00,VWS V14.01,2013-05-06 19:00:00,
2013-05-06 12:10:00,64.8,51.5,29.47,NW,312,0.0,3.1,62,0.00,,BKN200,0.00,VWS V14.01,2013-05-06 19:10:00,
2013-05-06 12:20:00,65.1,51.3,29.47,NW,306,0.0,2.2,61,0.00,,BKN200,0.00,VWS V14.01,2013-05-06 19:20:00,
2013-05-06 12:30:00,65.1,52.7,29.47,SW,220,2.7,4.0,64,0.00,,BKN200,0.00,VWS V14.01,2013-05-06 19:30:00,
2013-05-06 12:40:00,65.5,51.7,29.47,West,278,0.0,2.7,61,0.00,,BKN200,0.00,VWS V14.01,2013-05-06 19:40:00,
2013-05-06 12:50:00,65.7,51.9,29.47,West,278,0.0,3.1,61,0.00,,BKN250,0.00,VWS V14.01,2013-05-06 19:50:00,
2013-05-06 13:00:00,65.7,53.6,29.47,WSW,237,0.0,0.0,65,0.00,,BKN250,0.00,VWS V14.01,2013-05-06 20:00:00,
2013-05-06 13:10:00,64.9,53.7,29.47,SW,217,0.0,0.0,67,0.00,,BKN250,0.00,VWS V14.01,2013-05-06 20:10:00,
2013-05-06 13:20:00,64.9,54.9,29.47,East,88,0.0,0.0,70,0.00,,BKN250,0.00,VWS V14.01,2013-05-06 20:20:00,
2013-05-06 13:30:00,65.7,54.4,29.47,SW,215,0.0,0.0,67,0.00,,BKN250,0.00,VWS V14.01,2013-05-06 20:30:00,
2013-05-06 13:40:00,66.2,52.4,29.47,NNW,334,0.0,0.0,61,0.00,,BKN250,0.00,VWS V14.01,2013-05-06 20:40:00,
2013-05-06 13:50:00,66.6,51.3,29.47,NNE,15,0.0,0.0,58,0.00,,OVC085,0.00,VWS V14.01,2013-05-06 20:50:00,
2013-05-06 14:00:00,66.9,51.7,29.47,WSW,251,0.0,0.0,58,0.00,,OVC085,0.00,VWS V14.01,2013-05-06 21:00:00,
2013-05-06 14:10:00,67.5,48.2,29.47,ENE,64,0.0,2.7,50,0.00,,OVC085,0.00,VWS V14.01,2013-05-06 21:10:00,
2013-05-06 14:20:00,67.8,48.0,29.47,NE,48,0.0,0.0,49,0.00,,OVC085,0.00,VWS V14.01,2013-05-06 21:20:00,
2013-05-06 14:30:00,67.1,47.3,29.47,NNE,26,2.2,2.2,49,0.00,,OVC085,0.00,VWS V14.01,2013-05-06 21:30:00,
2013-05-06 14:40:00,66.6,48.4,29.47,NE,48,2.7,2.7,52,0.00,,OVC085,0.00,VWS V14.01,2013-05-06 21:40:00,
2013-05-06 14:50:00,67.3,48.0,29.47,North,3,2.7,2.7,50,0.00,,BKN090,0.00,VWS V14.01,2013-05-06 21:50:00,
2013-05-06 15:00:00,67.3,48.0,29.47,NNE,22,4.0,4.0,50,0.00,,BKN090,0.00,VWS V14.01,2013-05-06 22:00:00,
2013-05-06 15:10:00,67.3,48.0,29.47,NE,56,0.0,4.0,50,0.00,,BKN090,0.00,VWS V14.01,2013-05-06 22:10:00,
2013-05-06 15:20:00,67.1,48.4,29.47,NE,42,0.0,0.0,51,0.00,,BKN090,0.00,VWS V14.01,2013-05-06 22:20:00,
2013-05-06 15:30:00,66.7,48.1,29.47,NNE,24,2.2,2.7,51,0.00,,BKN090,0.00,VWS V14.01,2013-05-06 22:30:00,
2013-05-06 16:00:00,66.4,48.8,29.47,ENE,65,0.0,4.0,53,0.00,,BKN090,0.00,VWS V14.01,2013-05-06 23:00:00,
2013-05-06 16:10:00,66.4,50.2,29.47,NNE,21,0.0,3.6,56,0.00,,OVC075,0.00,VWS V14.01,2013-05-06 23:10:00,
2013-05-06 16:20:00,66.9,49.8,29.47,NE,45,0.0,4.0,54,0.00,,OVC075,0.00,VWS V14.01,2013-05-06 23:20:00,
2013-05-06 16:30:00,66.7,48.6,29.47,NNW,329,0.0,2.7,52,0.00,,OVC075,0.00,VWS V14.01,2013-05-06 23:30:00,
2013-05-06 16:40:00,65.7,48.6,29.47,NNW,333,0.0,3.6,54,0.00,,OVC075,0.00,VWS V14.01,2013-05-06 23:40:00,
2013-05-06 16:50:00,64.9,47.9,29.47,SW,232,0.0,2.2,54,0.00,,BKN095,0.00,VWS V14.01,2013-05-06 23:50:00,
2013-05-06 17:00:00,64.6,49.0,29.47,SSW,193,0.0,2.7,57,0.00,,BKN095,0.00,VWS V14.01,2013-05-07 00:00:00,
2013-05-06 17:10:00,64.4,48.8,29.47,WNW,288,0.0,0.0,57,0.00,,BKN095,0.00,VWS V14.01,2013-05-07 00:10:00,
2013-05-06 17:20:00,64.0,49.0,29.47,SW,229,0.0,2.7,58,0.00,,BKN095,0.00,VWS V14.01,2013-05-07 00:20:00,
2013-05-06 17:30:00,63.7,49.1,29.47,West,269,0.0,2.2,59,0.00,,BKN095,0.00,VWS V14.01,2013-05-07 00:30:00,
2013-05-06 17:40:00,63.5,49.4,29.47,SW,218,0.0,2.2,60,0.00,,OVC085,0.00,VWS V14.01,2013-05-07 00:40:00,
2013-05-06 17:50:00,63.1,49.9,29.50,South,181,0.0,0.0,62,0.00,,OVC085,0.00,VWS V14.01,2013-05-07 00:50:00,
2013-05-06 18:00:00,63.0,49.8,29.50,SW,220,0.0,0.0,62,0.00,,OVC085,0.00,VWS V14.01,2013-05-07 01:00:00,
2013-05-06 18:10:00,62.8,50.0,29.50,SW,233,0.0,2.2,63,0.00,,OVC085,0.00,VWS V14.01,2013-05-07 01:10:00,
2013-05-06 18:20:00,62.6,51.1,29.47,West,273,0.0,0.0,66,0.00,,OVC085,0.00,VWS V14.01,2013-05-07 01:20:00,
2013-05-06 18:30:00,62.4,52.1,29.47,WSW,256,0.0,0.0,69,0.00,,OVC085,0.00,VWS V14.01,2013-05-07 01:30:00,
2013-05-06 18:40:00,62.2,52.0,29.47,SW,233,0.0,0.0,69,0.00,,OVC085,0.00,VWS V14.01,2013-05-07 01:40:00,
2013-05-06 18:50:00,62.1,52.9,29.47,SW,234,0.0,0.0,72,0.00,,OVC075,0.00,VWS V14.01,2013-05-07 01:50:00,
2013-05-06 19:00:00,61.7,53.3,29.47,WSW,247,0.0,0.0,74,0.00,,OVC075,0.00,VWS V14.01,2013-05-07 02:00:00,
2013-05-06 19:10:00,61.7,53.3,29.47,ESE,114,0.0,0.0,74,0.00,,OVC075,0.00,VWS V14.01,2013-05-07 02:10:00,
2013-05-06 19:20:00,61.5,53.5,29.50,North,0,0.0,0.0,75,0.00,,OVC075,0.00,VWS V14.01,2013-05-07 02:20:00,
2013-05-06 19:30:00,61.0,53.4,29.50,NE,38,0.0,0.0,76,0.00,,OVC075,0.00,VWS V14.01,2013-05-07 02:30:00,
2013-05-06 19:40:00,60.8,53.2,29.50,NE,40,0.0,0.0,76,0.00,,OVC075,0.00,VWS V14.01,2013-05-07 02:40:00,
2013-05-06 19:50:00,60.4,53.2,29.50,SSW,200,0.0,0.0,77,0.00,,OVC090,0.00,VWS V14.01,2013-05-07 02:50:00,
2013-05-06 20:00:00,60.4,53.2,29.50,SSW,200,0.0,0.0,77,0.00,,OVC090,0.00,VWS V14.01,2013-05-07 03:00:00,
2013-05-06 20:10:00,59.7,52.9,29.50,SSW,200,0.0,0.0,78,0.00,,OVC090,0.00,VWS V14.01,2013-05-07 03:10:00,
2013-05-06 20:20:00,59.5,52.7,29.50,SSW,200,0.0,0.0,78,0.00,,OVC090,0.00,VWS V14.01,2013-05-07 03:20:00,
2013-05-06 20:30:00,58.8,52.7,29.50,SSW,200,0.0,0.0,80,0.00,,OVC090,0.00,VWS V14.01,2013-05-07 03:30:00,
2013-05-06 20:40:00,59.0,52.8,29.50,SSW,200,0.0,0.0,80,0.00,,OVC090,0.00,VWS V14.01,2013-05-07 03:40:00,
2013-05-06 20:50:00,59.0,52.8,29.50,SSW,200,0.0,0.0,80,0.00,,BKN050,0.00,VWS V14.01,2013-05-07 03:50:00,
2013-05-06 21:00:00,59.0,53.2,29.53,SSW,200,0.0,0.0,81,0.00,,BKN050,0.00,VWS V14.01,2013-05-07 04:00:00,
2013-05-06 21:10:00,59.2,53.7,29.53,SSW,200,0.0,0.0,82,0.00,,BKN050,0.00,VWS V14.01,2013-05-07 04:10:00,
2013-05-06 21:20:00,59.2,53.7,29.53,SSW,200,0.0,0.0,82,0.00,,BKN050,0.00,VWS V14.01,2013-05-07 04:20:00,
2013-05-06 21:30:00,59.0,53.5,29.53,SSW,200,0.0,0.0,82,0.00,,BKN050,0.00,VWS V14.01,2013-05-07 04:30:00,
2013-05-06 21:40:00,59.0,53.5,29.56,SSW,200,0.0,0.0,82,0.00,,BKN050,0.00,VWS V14.01,2013-05-07 04:40:00,
2013-05-06 21:50:00,58.8,53.7,29.56,SSW,200,0.0,0.0,83,0.00,,OVC048,0.00,VWS V14.01,2013-05-07 04:50:00,
2013-05-06 22:00:00,58.8,53.7,29.56,SSW,200,0.0,0.0,83,0.00,,OVC048,0.00,VWS V14.01,2013-05-07 05:00:00,
2013-05-06 22:10:00,59.0,53.8,29.56,SSW,200,0.0,0.0,83,0.00,,OVC048,0.00,VWS V14.01,2013-05-07 05:10:00,
2013-05-06 22:20:00,59.0,53.8,29.56,SSW,200,0.0,0.0,83,0.00,,OVC048,0.00,VWS V14.01,2013-05-07 05:20:00,
2013-05-06 22:30:00,58.6,53.8,29.56,SSW,200,0.0,0.0,84,0.00,,OVC048,0.00,VWS V14.01,2013-05-07 05:30:00,
2013-05-06 22:40:00,58.3,53.5,29.56,SSW,200,0.0,0.0,84,0.00,,OVC048,0.00,VWS V14.01,2013-05-07 05:40:00,
2013-05-06 22:50:00,58.1,53.3,29.56,SSW,200,0.0,0.0,84,0.00,,BKN075,0.00,VWS V14.01,2013-05-07 05:50:00,
2013-05-06 23:00:00,58.1,53.6,29.56,SSW,200,0.0,0.0,85,0.00,,BKN075,0.00,VWS V14.01,2013-05-07 06:00:00,
2013-05-06 23:10:00,58.1,53.6,29.56,SSW,200,0.0,0.0,85,0.00,,BKN075,0.00,VWS V14.01,2013-05-07 06:10:00,
2013-05-06 23:20:00,58.1,53.6,29.56,SSW,200,0.0,0.0,85,0.00,,BKN075,0.00,VWS V14.01,2013-05-07 06:20:00,
2013-05-06 23:30:00,58.1,53.9,29.56,SSW,200,0.0,0.0,86,0.00,,BKN075,0.00,VWS V14.01,2013-05-07 06:30:00,
2013-05-06 23:40:00,57.9,53.8,29.56,SSW,200,0.0,0.0,86,0.00,,BKN075,0.00,VWS V14.01,2013-05-07 06:40:00,
2013-05-06 23:50:00,58.1,53.9,29.56,SSW,200,0.0,0.0,86,0.00,,OVC080,0.00,VWS V14.01,2013-05-07 06:50:00,